Location: Cahas Mountain Overlook
(37.0833°N, 80.1000°W)
Time: 05:26:10
(UTC-05:00)

Vanguard 1 Rocket - Visible Passes

Search period start: 19 January 2022 00:00
Search period end: 29 January 2022 00:00
Orbit: 651 x 4224 km, 34.3° (Epoch: 18 January)

Date Brightness Start Highest point End Pass type
(mag) Time Alt. Az. Time Alt. Az. Time Alt. Az.
19 Jan 8.9 19:54:16 10° W 20:01:08 29° SW 20:03:23 22° S visible
20 Jan 8.8 18:40:02 10° W 18:50:24 50° SSW 18:56:07 10° SE visible
21 Jan 9.4 19:57:17 10° W 20:03:28 22° SW 20:06:52 14° S visible
22 Jan 9.2 18:42:35 10° W 18:52:52 42° SSW 18:58:40 10° SE visible
23 Jan 9.8 20:00:38 10° W 20:05:39 17° SW 20:09:25 10° S visible
24 Jan 9.7 18:45:13 10° W 18:55:12 34° SW 19:01:03 10° SSE visible
25 Jan 10.3 20:04:56 10° WSW 20:07:43 12° SW 20:10:05 10° SSW visible
26 Jan 9.9 18:48:00 10° W 18:57:23 27° SW 19:03:09 10° SSE visible
28 Jan 10.2 18:51:04 10° W 18:59:23 22° SW 19:04:56 10° S visible
